Hourly Data Report for October 01, 2016

All times are specified in Local Standard Time (LST). Add 1 hour to adjust for Daylight Saving Time where and when it is observed.

BATHURST A
NEW BRUNSWICK

47°37'47.000" N
65°44'20.000" W
58.80 m
8100505
71574
ZBF

Download Data

Hourly Data (October 2016)
Hourly Data Report for October 1, 2016
Temp Definition
°C
Dew Point Temp Definition
°C
Rel Hum Definition
%
Wind Dir Definition
10's deg

Wind Spd Definition
km/h
Visibility Definition
km
Stn Press Definition
kPa
Hmdx Definition


Wind Chill Definition


Weather Definition


TIME
00:00 Legend Double Dagger 6.1 5.5 96 22 4 24.1 102.26     LegendNANA
01:00 Legend Double Dagger 5.5 4.9 96 10 3 24.1 102.28     LegendNANA
02:00 Legend Double Dagger 4.8 4.5 98 36 3 24.1 102.27     Clear
03:00 Legend Double Dagger 4.3 3.9 97 36 3 24.1 102.24     LegendNANA
04:00 Legend Double Dagger 3.4 3.0 97 36 1 24.1 102.24     LegendNANA
05:00 Legend Double Dagger 3.6 3.0 96 36 2 24.1 102.23     Cloudy
06:00 Legend Double Dagger 3.1 2.7 97 24 3 24.1 102.24     LegendNANA
07:00 Legend Double Dagger 3.8 3.2 96 24 7 22.5 102.26     LegendNANA
08:00 Legend Double Dagger 7.8 6.3 90 36 1 24.1 102.26     Mostly Cloudy
09:00 Legend Double Dagger 12.1 8.2 77 36 2 24.1 102.24     LegendNANA
10:00 Legend Double Dagger 15.5 9.9 69 36 1 24.1 102.21     LegendNANA
11:00 Legend Double Dagger 17.6 10.1 61 10 5 24.1 102.16     Mostly Cloudy
12:00 Legend Double Dagger 19.5 11.1 58 36 1 24.1 102.08     LegendNANA
13:00 Legend Double Dagger 19.6 10.7 56 9 12 24.1 101.98     LegendNANA
14:00 Legend Double Dagger 19.6 11.5 59 5 9 24.1 101.90     Mostly Cloudy
15:00 Legend Double Dagger 19.7 11.3 58 7 6 24.1 101.84     LegendNANA
16:00 Legend Double Dagger 17.9 11.1 64 6 4 24.1 101.80     LegendNANA
17:00 Legend Double Dagger 17.6 11.3 66 36 2 24.1 101.78     Mostly Cloudy
18:00 Legend Double Dagger 13.9 12.1 89 25 4 24.1 101.77     LegendNANA
19:00 Legend Double Dagger 11.6 11.0 96 25 3 24.1 101.75     LegendNANA
20:00 Legend Double Dagger 10.7 9.6 93 0 1 16.1 101.73     Mostly Cloudy
21:00 Legend Double Dagger 9.9 8.8 93 23 4 16.1 101.75     LegendNANA
22:00 Legend Double Dagger 9.4 8.7 95 36 1 16.1 101.73     LegendNANA
23:00 Legend Double Dagger 8.6 8.2 97 36 2 9.7 101.71     Fog

Notes on Data Quality.

Legend

  • E = Estimated
  • M = Missing
  • NA = Not Available
  • ‡ = Partner data that is not subject to review by the National Climate Archives
Date modified: